TimeMDT,TemperatureF,Dew PointF,Humidity,Sea Level PressureIn,VisibilityMPH,Wind Direction,Wind SpeedMPH,Gust SpeedMPH,PrecipitationIn,Events,Conditions,WindDirDegrees,DateUTC
12:15 AM,47.3,19.2,33,30.02,10.0,Calm,Calm,-,N/A,,Clear,0,2013-05-28 06:15:00
12:35 AM,44.2,20.1,38,30.03,10.0,Calm,Calm,-,N/A,,Clear,0,2013-05-28 06:35:00
12:55 AM,43.7,20.3,39,30.03,10.0,Calm,Calm,-,N/A,,Clear,0,2013-05-28 06:55:00
1:15 AM,41.9,21.0,43,30.02,10.0,West,3.5,-,N/A,,Clear,280,2013-05-28 07:15:00
1:35 AM,40.3,21.4,47,30.01,10.0,NW,5.8,-,N/A,,Clear,320,2013-05-28 07:35:00
1:55 AM,41.7,20.7,43,30.01,10.0,North,3.5,-,N/A,,Clear,360,2013-05-28 07:55:00
2:15 AM,44.8,19.9,37,30.01,10.0,Calm,Calm,-,N/A,,Clear,0,2013-05-28 08:15:00
2:35 AM,43.5,16.9,34,30.01,10.0,Calm,Calm,-,N/A,,Clear,0,2013-05-28 08:35:00
2:55 AM,41.5,18.1,39,30.01,10.0,SE,4.6,-,N/A,,Clear,140,2013-05-28 08:55:00
3:15 AM,42.3,17.4,37,30.01,10.0,Calm,Calm,-,N/A,,Clear,0,2013-05-28 09:15:00
3:35 AM,41.2,18.1,40,30.00,10.0,Calm,Calm,-,N/A,,Clear,0,2013-05-28 09:35:00
3:55 AM,36.9,20.1,51,30.00,10.0,SW,4.6,-,N/A,,Clear,230,2013-05-28 09:55:00
4:15 AM,34.0,21.4,60,30.00,10.0,WNW,6.9,-,N/A,,Clear,300,2013-05-28 10:15:00
4:35 AM,35.8,22.1,58,30.00,10.0,WNW,3.5,-,N/A,,Clear,300,2013-05-28 10:35:00
4:55 AM,33.8,22.1,62,30.00,10.0,West,5.8,-,N/A,,Clear,270,2013-05-28 10:55:00
5:15 AM,34.3,22.1,61,30.00,10.0,WNW,4.6,-,N/A,,Clear,300,2013-05-28 11:15:00
5:35 AM,33.6,21.7,62,30.00,10.0,Calm,Calm,-,N/A,,Clear,0,2013-05-28 11:35:00
5:55 AM,34.2,22.6,63,30.00,10.0,WNW,4.6,-,N/A,,Clear,290,2013-05-28 11:55:00
6:15 AM,36.1,21.6,56,30.00,10.0,NNW,3.5,-,N/A,,Clear,340,2013-05-28 12:15:00
6:35 AM,39.6,23.5,53,30.00,10.0,Calm,Calm,-,N/A,,Clear,0,2013-05-28 12:35:00
6:55 AM,41.7,22.8,47,30.00,10.0,Calm,Calm,-,N/A,,Clear,0,2013-05-28 12:55:00
7:15 AM,43.7,22.1,42,30.00,10.0,NW,3.5,-,N/A,,Clear,310,2013-05-28 13:15:00
7:35 AM,43.9,21.0,40,30.00,10.0,Calm,Calm,-,N/A,,Clear,0,2013-05-28 13:35:00
7:55 AM,46.9,21.4,36,30.00,10.0,Calm,Calm,-,N/A,,Clear,0,2013-05-28 13:55:00
8:15 AM,48.6,19.2,31,30.00,10.0,Calm,Calm,-,N/A,,Clear,0,2013-05-28 14:15:00
8:35 AM,50.4,18.5,28,29.99,10.0,Calm,Calm,-,N/A,,Clear,0,2013-05-28 14:35:00
8:55 AM,52.5,18.3,26,29.99,10.0,Calm,Calm,-,N/A,,Clear,0,2013-05-28 14:55:00
9:15 AM,53.4,16.7,24,29.99,10.0,Calm,Calm,-,N/A,,Clear,0,2013-05-28 15:15:00
9:35 AM,55.6,18.5,23,29.99,10.0,SE,4.6,-,N/A,,Clear,130,2013-05-28 15:35:00
9:55 AM,56.3,19.0,23,29.97,10.0,Calm,Calm,-,N/A,,Clear,0,2013-05-28 15:55:00
10:15 AM,59.2,19.0,21,29.96,10.0,ESE,8.1,-,N/A,,Clear,110,2013-05-28 16:15:00
10:35 AM,61.0,17.8,19,29.95,10.0,ESE,5.8,-,N/A,,Clear,120,2013-05-28 16:35:00
10:55 AM,64.9,14.2,14,29.93,10.0,SE,16.1,21.9,N/A,,Clear,130,2013-05-28 16:55:00
11:15 AM,64.4,13.8,14,29.92,10.0,SE,12.7,20.7,N/A,,Clear,130,2013-05-28 17:15:00
11:35 AM,65.5,14.0,14,29.92,10.0,ESE,15.0,19.6,N/A,,Clear,120,2013-05-28 17:35:00
11:55 AM,66.6,13.3,13,29.91,10.0,SSE,10.4,24.2,N/A,,Clear,150,2013-05-28 17:55:00
12:15 PM,67.6,12.6,12,29.90,10.0,SE,19.6,27.6,N/A,,Clear,140,2013-05-28 18:15:00
12:35 PM,68.7,12.4,11,29.89,10.0,ESE,13.8,23.0,N/A,,Clear,120,2013-05-28 18:35:00
12:55 PM,70.5,12.9,11,29.88,10.0,SE,13.8,28.8,N/A,,Clear,140,2013-05-28 18:55:00
1:15 PM,69.1,11.8,11,29.87,10.0,SE,18.4,28.8,N/A,,Scattered Clouds,130,2013-05-28 19:15:00
1:35 PM,68.7,11.7,11,29.86,10.0,SE,24.2,31.1,N/A,,Mostly Cloudy,130,2013-05-28 19:35:00
1:55 PM,69.6,11.8,11,29.85,10.0,South,24.2,31.1,N/A,,Scattered Clouds,170,2013-05-28 19:55:00
2:15 PM,69.8,12.0,11,29.85,10.0,South,18.4,28.8,N/A,,Mostly Cloudy,170,2013-05-28 20:15:00
2:35 PM,69.3,12.2,11,29.84,10.0,South,15.0,26.5,N/A,,Mostly Cloudy,170,2013-05-28 20:35:00
2:55 PM,70.0,12.0,11,29.83,10.0,SSE,17.3,24.2,N/A,,Scattered Clouds,160,2013-05-28 20:55:00
3:15 PM,70.5,11.1,10,29.82,10.0,SSW,13.8,23.0,N/A,,Scattered Clouds,200,2013-05-28 21:15:00
3:35 PM,70.0,11.7,11,29.81,10.0,South,12.7,24.2,N/A,,Clear,180,2013-05-28 21:35:00
3:55 PM,69.3,9.5,10,29.80,10.0,SSW,8.1,18.4,N/A,,Scattered Clouds,200,2013-05-28 21:55:00
4:15 PM,70.9,9.7,9,29.79,10.0,SSW,13.8,28.8,N/A,,Scattered Clouds,200,2013-05-28 22:15:00
4:35 PM,72.3,8.4,8,29.79,10.0,South,16.1,28.8,N/A,,Clear,180,2013-05-28 22:35:00
4:55 PM,70.3,8.8,9,29.79,10.0,SW,16.1,26.5,N/A,,Clear,220,2013-05-28 22:55:00
5:15 PM,70.3,5.5,8,29.78,10.0,South,15.0,32.2,N/A,,Clear,180,2013-05-28 23:15:00
5:35 PM,68.4,4.8,8,29.79,10.0,SSW,16.1,28.8,N/A,,Clear,200,2013-05-28 23:35:00
5:55 PM,69.6,3.9,8,29.78,10.0,SW,21.9,28.8,N/A,,Clear,220,2013-05-28 23:55:00
6:15 PM,69.6,5.2,8,29.78,10.0,SSW,17.3,29.9,N/A,,Clear,210,2013-05-29 00:15:00
6:35 PM,68.0,3.7,8,29.78,10.0,South,15.0,25.3,N/A,,Clear,190,2013-05-29 00:35:00
6:55 PM,68.2,6.1,9,29.79,10.0,SSW,16.1,23.0,N/A,,Clear,200,2013-05-29 00:55:00
7:15 PM,65.8,8.8,11,29.79,10.0,SW,20.7,26.5,N/A,,Clear,220,2013-05-29 01:15:00
7:35 PM,63.7,10.4,12,29.79,10.0,WSW,19.6,25.3,N/A,,Clear,240,2013-05-29 01:35:00
7:55 PM,62.2,14.2,15,29.80,10.0,West,25.3,29.9,N/A,,Clear,260,2013-05-29 01:55:00
8:15 PM,58.8,23.0,25,29.80,10.0,West,17.3,24.2,N/A,,Clear,260,2013-05-29 02:15:00
8:35 PM,58.1,21.4,24,29.81,10.0,West,16.1,21.9,N/A,,Clear,260,2013-05-29 02:35:00
8:55 PM,57.2,22.6,26,29.82,10.0,West,10.4,-,N/A,,Clear,280,2013-05-29 02:55:00
9:15 PM,56.7,22.1,26,29.82,10.0,North,5.8,-,N/A,,Clear,350,2013-05-29 03:15:00
9:35 PM,56.1,21.4,26,29.83,10.0,NNW,5.8,-,N/A,,Clear,330,2013-05-29 03:35:00
9:55 PM,57.4,20.7,24,29.83,10.0,NNW,8.1,-,N/A,,Clear,340,2013-05-29 03:55:00
10:15 PM,57.7,20.3,23,29.83,10.0,NNW,3.5,-,N/A,,Scattered Clouds,330,2013-05-29 04:15:00
10:35 PM,57.0,20.3,24,29.83,10.0,SSW,3.5,-,N/A,,Scattered Clouds,210,2013-05-29 04:35:00
10:55 PM,51.4,21.2,31,29.82,10.0,WSW,8.1,-,N/A,,Clear,250,2013-05-29 04:55:00
11:15 PM,50.9,21.2,31,29.82,10.0,West,6.9,-,N/A,,Clear,260,2013-05-29 05:15:00
11:35 PM,49.3,21.7,34,29.81,10.0,Calm,Calm,-,N/A,,Clear,0,2013-05-29 05:35:00
11:55 PM,48.9,21.2,34,29.81,10.0,North,3.5,-,N/A,,Clear,10,2013-05-29 05:55:00